Year,Month,Day,Hour,Minute,Value (Times are PST for temperature in C)
2021,08,10,00,00,12.10
2021,08,10,00,01,12.10
2021,08,10,00,02,12.10
2021,08,10,00,03,12.10
2021,08,10,00,04,12.10
2021,08,10,00,05,12.10
2021,08,10,00,06,12.10
2021,08,10,00,07,12.10
2021,08,10,00,08,12.10
2021,08,10,00,09,12.10
2021,08,10,00,10,12.10
2021,08,10,00,11,12.10
2021,08,10,00,12,12.10
2021,08,10,00,13,12.10
2021,08,10,00,14,12.10
2021,08,10,00,15,12.10
2021,08,10,00,16,12.10
2021,08,10,00,17,12.00
2021,08,10,00,18,12.00
2021,08,10,00,19,12.00
2021,08,10,00,20,12.00
2021,08,10,00,21,12.00
2021,08,10,00,22,12.00
2021,08,10,00,23,11.90
2021,08,10,00,24,11.90
2021,08,10,00,25,11.90
2021,08,10,00,26,11.90
2021,08,10,00,27,11.90
2021,08,10,00,28,11.90
2021,08,10,00,29,11.90
2021,08,10,00,30,11.90
2021,08,10,00,31,11.90
2021,08,10,00,32,11.90
2021,08,10,00,33,11.90
2021,08,10,00,34,11.90
2021,08,10,00,35,11.90
2021,08,10,00,36,11.90
2021,08,10,00,37,11.90
2021,08,10,00,38,12.00
2021,08,10,00,39,12.00
2021,08,10,00,40,12.00
2021,08,10,00,41,12.00
2021,08,10,00,42,12.00
2021,08,10,00,43,12.00
2021,08,10,00,44,12.00
2021,08,10,00,45,12.00
2021,08,10,00,46,11.90
2021,08,10,00,47,11.90
2021,08,10,00,48,11.90
2021,08,10,00,49,11.90
2021,08,10,00,50,11.90
2021,08,10,00,51,11.90
2021,08,10,00,52,11.90
2021,08,10,00,53,11.90
2021,08,10,00,54,11.80
2021,08,10,00,55,11.80
2021,08,10,00,56,11.90
2021,08,10,00,57,11.90
2021,08,10,00,58,11.90
2021,08,10,00,59,11.90
2021,08,10,01,00,12.00
2021,08,10,01,01,12.00
2021,08,10,01,02,12.00
2021,08,10,01,03,12.10
2021,08,10,01,04,12.10
2021,08,10,01,05,12.10
2021,08,10,01,06,12.10
2021,08,10,01,07,12.20
2021,08,10,01,08,12.20
2021,08,10,01,09,12.20
2021,08,10,01,10,12.20
2021,08,10,01,11,12.20
2021,08,10,01,12,12.20
2021,08,10,01,13,12.20
2021,08,10,01,14,12.20
2021,08,10,01,15,12.20
2021,08,10,01,16,12.20
2021,08,10,01,17,12.10
2021,08,10,01,18,12.10
2021,08,10,01,19,12.10
2021,08,10,01,20,12.10
2021,08,10,01,21,12.10
2021,08,10,01,22,12.00
2021,08,10,01,23,12.00
2021,08,10,01,24,12.00
2021,08,10,01,25,12.00
2021,08,10,01,26,11.90
2021,08,10,01,27,11.90
2021,08,10,01,28,11.90
2021,08,10,01,29,11.90
2021,08,10,01,30,11.80
2021,08,10,01,31,11.80
2021,08,10,01,32,11.80
2021,08,10,01,33,11.80
2021,08,10,01,34,11.80
2021,08,10,01,35,11.80
2021,08,10,01,36,11.80
2021,08,10,01,37,11.80
2021,08,10,01,38,11.80
2021,08,10,01,39,11.80
2021,08,10,01,40,11.80
2021,08,10,01,41,11.70
2021,08,10,01,42,11.70
2021,08,10,01,43,11.70
2021,08,10,01,44,11.70
2021,08,10,01,45,11.70
2021,08,10,01,46,11.80
2021,08,10,01,47,11.80
2021,08,10,01,48,11.80
2021,08,10,01,49,11.80
2021,08,10,01,50,11.80
2021,08,10,01,51,11.80
2021,08,10,01,52,11.80
2021,08,10,01,53,11.80
2021,08,10,01,54,11.80
2021,08,10,01,55,11.80
2021,08,10,01,56,11.80
2021,08,10,01,57,11.80
2021,08,10,01,58,11.80
2021,08,10,01,59,11.80
2021,08,10,02,00,11.80
2021,08,10,02,01,11.80
2021,08,10,02,02,11.80
2021,08,10,02,03,11.80
2021,08,10,02,04,11.80
2021,08,10,02,05,11.80
2021,08,10,02,06,11.80
2021,08,10,02,07,11.70
2021,08,10,02,08,11.70
2021,08,10,02,09,11.70
2021,08,10,02,10,11.70
2021,08,10,02,11,11.70
2021,08,10,02,12,11.70
2021,08,10,02,13,11.70
2021,08,10,02,14,11.70
2021,08,10,02,15,11.70
2021,08,10,02,16,11.70
2021,08,10,02,17,11.70
2021,08,10,02,18,11.70
2021,08,10,02,19,11.70
2021,08,10,02,20,11.70
2021,08,10,02,21,11.70
2021,08,10,02,22,11.70
2021,08,10,02,23,11.70
2021,08,10,02,24,11.70
2021,08,10,02,25,11.70
2021,08,10,02,26,11.70
2021,08,10,02,27,11.70
2021,08,10,02,28,11.70
2021,08,10,02,29,11.70
2021,08,10,02,30,11.70
2021,08,10,02,31,11.70
2021,08,10,02,32,11.70
2021,08,10,02,33,11.70
2021,08,10,02,34,11.70
2021,08,10,02,35,11.60
2021,08,10,02,36,11.70
2021,08,10,02,37,11.60
2021,08,10,02,38,11.60
2021,08,10,02,39,11.60
2021,08,10,02,40,11.60
2021,08,10,02,41,11.60
2021,08,10,02,42,11.60
2021,08,10,02,43,11.70
2021,08,10,02,44,11.70
2021,08,10,02,45,11.70
2021,08,10,02,46,11.70
2021,08,10,02,47,11.80
2021,08,10,02,48,11.80
2021,08,10,02,49,11.80
2021,08,10,02,50,11.90
2021,08,10,02,51,11.90
2021,08,10,02,52,11.90
2021,08,10,02,53,11.90
2021,08,10,02,54,11.90
2021,08,10,02,55,11.90
2021,08,10,02,56,11.90
2021,08,10,02,57,11.90
2021,08,10,02,58,11.80
2021,08,10,02,59,11.80
2021,08,10,03,00,11.80
2021,08,10,03,01,11.70
2021,08,10,03,02,11.70
2021,08,10,03,03,11.70
2021,08,10,03,04,11.70
2021,08,10,03,05,11.60
2021,08,10,03,06,11.60
2021,08,10,03,07,11.60
2021,08,10,03,08,11.60
2021,08,10,03,09,11.60
2021,08,10,03,10,11.60
2021,08,10,03,11,11.60
2021,08,10,03,12,11.60
2021,08,10,03,13,11.60
2021,08,10,03,14,11.60
2021,08,10,03,15,11.60
2021,08,10,03,16,11.60
2021,08,10,03,17,11.60
2021,08,10,03,18,11.60
2021,08,10,03,19,11.60
2021,08,10,03,20,11.60
2021,08,10,03,21,11.60
2021,08,10,03,22,11.60
2021,08,10,03,23,11.60
2021,08,10,03,24,11.70
2021,08,10,03,25,11.70
2021,08,10,03,26,11.70
2021,08,10,03,27,11.70
2021,08,10,03,28,11.70
2021,08,10,03,29,11.70
2021,08,10,03,30,11.70
2021,08,10,03,31,11.70
2021,08,10,03,32,11.70
2021,08,10,03,33,11.70
2021,08,10,03,34,11.70
2021,08,10,03,35,11.70
2021,08,10,03,36,11.70
2021,08,10,03,37,11.70
2021,08,10,03,38,11.70
2021,08,10,03,39,11.80
2021,08,10,03,40,11.70
2021,08,10,03,41,11.70
2021,08,10,03,42,11.70
2021,08,10,03,43,11.70
2021,08,10,03,44,11.70
2021,08,10,03,45,11.70
2021,08,10,03,46,11.70
2021,08,10,03,47,11.70
2021,08,10,03,48,11.70
2021,08,10,03,49,11.70
2021,08,10,03,50,11.70
2021,08,10,03,51,11.70
2021,08,10,03,52,11.70
2021,08,10,03,53,11.70
2021,08,10,03,54,11.70
2021,08,10,03,55,11.70
2021,08,10,03,56,11.70
2021,08,10,03,57,11.70
2021,08,10,03,58,11.70
2021,08,10,03,59,11.80
2021,08,10,04,00,11.80
2021,08,10,04,01,11.80
2021,08,10,04,02,11.80
2021,08,10,04,03,11.80
2021,08,10,04,04,11.80
2021,08,10,04,05,11.80
2021,08,10,04,06,11.80
2021,08,10,04,07,11.70
2021,08,10,04,08,11.70
2021,08,10,04,09,11.70
2021,08,10,04,10,11.70
2021,08,10,04,11,11.70
2021,08,10,04,12,11.70
2021,08,10,04,13,11.70
2021,08,10,04,14,11.60
2021,08,10,04,15,11.60
2021,08,10,04,16,11.60
2021,08,10,04,17,11.50
2021,08,10,04,18,11.50
2021,08,10,04,19,11.50
2021,08,10,04,20,11.40
2021,08,10,04,21,11.50
2021,08,10,04,22,11.50
2021,08,10,04,23,11.50
2021,08,10,04,24,11.50
2021,08,10,04,25,11.50
2021,08,10,04,26,11.50
2021,08,10,04,27,11.60
2021,08,10,04,28,11.60
2021,08,10,04,29,11.60
2021,08,10,04,30,11.60
2021,08,10,04,31,11.60
2021,08,10,04,32,11.60
2021,08,10,04,33,11.60
2021,08,10,04,34,11.60
2021,08,10,04,35,11.60
2021,08,10,04,36,11.50
2021,08,10,04,37,11.50
2021,08,10,04,38,11.50
2021,08,10,04,39,11.50
2021,08,10,04,40,11.50
2021,08,10,04,41,11.50
2021,08,10,04,42,11.50
2021,08,10,04,43,11.50
2021,08,10,04,44,11.50
2021,08,10,04,45,11.50
2021,08,10,04,46,11.50
2021,08,10,04,47,11.50
2021,08,10,04,48,11.50
2021,08,10,04,49,11.50
2021,08,10,04,50,11.50
2021,08,10,04,51,11.50
2021,08,10,04,52,11.40
2021,08,10,04,53,11.40
2021,08,10,04,54,11.40
2021,08,10,04,55,11.40
2021,08,10,04,56,11.40
2021,08,10,04,57,11.40
2021,08,10,04,58,11.50
2021,08,10,04,59,11.50
2021,08,10,05,00,11.50
2021,08,10,05,01,11.60
2021,08,10,05,02,11.60
2021,08,10,05,03,11.60
2021,08,10,05,04,11.60
2021,08,10,05,05,11.60
2021,08,10,05,06,11.60
2021,08,10,05,07,11.60
2021,08,10,05,08,11.60
2021,08,10,05,09,11.60
2021,08,10,05,10,11.50
2021,08,10,05,11,11.50
2021,08,10,05,12,11.50
2021,08,10,05,13,11.50
2021,08,10,05,14,11.50
2021,08,10,05,15,11.50
2021,08,10,05,16,11.50
2021,08,10,05,17,11.50
2021,08,10,05,18,11.40
2021,08,10,05,19,11.40
2021,08,10,05,20,11.40
2021,08,10,05,21,11.40
2021,08,10,05,22,11.50
2021,08,10,05,23,11.50
2021,08,10,05,24,11.50
2021,08,10,05,25,11.60
2021,08,10,05,26,11.60
2021,08,10,05,27,11.60
2021,08,10,05,28,11.60
2021,08,10,05,29,11.60
2021,08,10,05,30,11.60
2021,08,10,05,31,11.60
2021,08,10,05,32,11.60
2021,08,10,05,33,11.60
2021,08,10,05,34,11.60
2021,08,10,05,35,11.60
2021,08,10,05,36,11.60
2021,08,10,05,37,11.60
2021,08,10,05,38,11.50
2021,08,10,05,39,11.50
2021,08,10,05,40,11.50
2021,08,10,05,41,11.50
2021,08,10,05,42,11.50
2021,08,10,05,43,11.60
2021,08,10,05,44,11.60
2021,08,10,05,45,11.60
2021,08,10,05,46,11.60
2021,08,10,05,47,11.60
2021,08,10,05,48,11.60
2021,08,10,05,49,11.60
2021,08,10,05,50,11.60
2021,08,10,05,51,11.60
2021,08,10,05,52,11.60
2021,08,10,05,53,11.60
2021,08,10,05,54,11.60
2021,08,10,05,55,11.60
2021,08,10,05,56,11.60
2021,08,10,05,57,11.60
2021,08,10,05,58,11.50
2021,08,10,05,59,11.50
2021,08,10,06,00,11.50
2021,08,10,06,01,11.50
2021,08,10,06,02,11.50
2021,08,10,06,03,11.50
2021,08,10,06,04,11.40
2021,08,10,06,05,11.40
2021,08,10,06,06,11.40
2021,08,10,06,07,11.40
2021,08,10,06,08,11.40
2021,08,10,06,09,11.40
2021,08,10,06,10,11.40
2021,08,10,06,11,11.40
2021,08,10,06,12,11.40
2021,08,10,06,13,11.40
2021,08,10,06,14,11.40
2021,08,10,06,15,11.40
2021,08,10,06,16,11.40
2021,08,10,06,17,11.40
2021,08,10,06,18,11.50
2021,08,10,06,19,11.50
2021,08,10,06,20,11.50
2021,08,10,06,21,11.50
2021,08,10,06,22,11.50
2021,08,10,06,23,11.50
2021,08,10,06,24,11.50
2021,08,10,06,25,11.50
2021,08,10,06,26,11.50
2021,08,10,06,27,11.50
2021,08,10,06,28,11.50
2021,08,10,06,29,11.50
2021,08,10,06,30,11.50
2021,08,10,06,31,11.50
2021,08,10,06,32,11.50
2021,08,10,06,33,11.50
2021,08,10,06,34,11.50
2021,08,10,06,35,11.50
2021,08,10,06,36,11.40
2021,08,10,06,37,11.40
2021,08,10,06,38,11.40
2021,08,10,06,39,11.40
2021,08,10,06,40,11.40
2021,08,10,06,41,11.40
2021,08,10,06,42,11.40
2021,08,10,06,43,11.40
2021,08,10,06,44,11.40
2021,08,10,06,45,11.40
2021,08,10,06,46,11.40
2021,08,10,06,47,11.40
2021,08,10,06,48,11.40
2021,08,10,06,49,11.50
2021,08,10,06,50,11.50
2021,08,10,06,51,11.60
2021,08,10,06,52,11.60
2021,08,10,06,53,11.60
2021,08,10,06,54,11.60
2021,08,10,06,55,11.60
2021,08,10,06,56,11.60
2021,08,10,06,57,11.60
2021,08,10,06,58,11.60
2021,08,10,06,59,11.60
2021,08,10,07,00,11.60
2021,08,10,07,01,11.70
2021,08,10,07,02,11.70
2021,08,10,07,03,11.70
2021,08,10,07,04,11.70
2021,08,10,07,05,11.70
2021,08,10,07,06,11.70
2021,08,10,07,07,11.70
2021,08,10,07,08,11.70
2021,08,10,07,09,11.70
2021,08,10,07,10,11.80
2021,08,10,07,11,11.80
2021,08,10,07,12,11.80
2021,08,10,07,13,11.90
2021,08,10,07,14,11.90
2021,08,10,07,15,11.90
2021,08,10,07,16,11.90
2021,08,10,07,17,11.90
2021,08,10,07,18,12.00
2021,08,10,07,19,12.00
2021,08,10,07,20,12.10
2021,08,10,07,21,12.20
2021,08,10,07,22,12.20
2021,08,10,07,23,12.30
2021,08,10,07,24,12.30
2021,08,10,07,25,12.30
2021,08,10,07,26,12.40
2021,08,10,07,27,12.40
2021,08,10,07,28,12.50
2021,08,10,07,29,12.60
2021,08,10,07,30,12.60
2021,08,10,07,31,12.60
2021,08,10,07,32,12.70
2021,08,10,07,33,12.70
2021,08,10,07,34,12.80
2021,08,10,07,35,12.90
2021,08,10,07,36,12.90
2021,08,10,07,37,13.10
2021,08,10,07,38,13.20
2021,08,10,07,39,13.20
2021,08,10,07,40,13.30
2021,08,10,07,41,13.30
2021,08,10,07,42,13.40
2021,08,10,07,43,13.40
2021,08,10,07,44,13.40
2021,08,10,07,45,13.50
2021,08,10,07,46,13.50
2021,08,10,07,47,13.60
2021,08,10,07,48,13.60
2021,08,10,07,49,13.70
2021,08,10,07,50,13.80
2021,08,10,07,51,13.80
2021,08,10,07,52,13.90
2021,08,10,07,53,13.90
2021,08,10,07,54,14.00
2021,08,10,07,55,14.10
2021,08,10,07,56,14.10
2021,08,10,07,57,14.20
2021,08,10,07,58,14.30
2021,08,10,07,59,14.40
2021,08,10,08,00,14.40
2021,08,10,08,01,14.50
2021,08,10,08,02,14.60
2021,08,10,08,03,14.60
2021,08,10,08,04,14.60
2021,08,10,08,05,14.60
2021,08,10,08,06,14.50
2021,08,10,08,07,14.40
2021,08,10,08,08,14.30
2021,08,10,08,09,14.30
2021,08,10,08,10,14.30
2021,08,10,08,11,14.30
2021,08,10,08,12,14.30
2021,08,10,08,13,14.40
2021,08,10,08,14,14.40
2021,08,10,08,15,14.40
2021,08,10,08,16,14.40
2021,08,10,08,17,14.40
2021,08,10,08,18,14.30
2021,08,10,08,19,14.30
2021,08,10,08,20,14.30
2021,08,10,08,21,14.30
2021,08,10,08,22,14.30
2021,08,10,08,23,14.30
2021,08,10,08,24,14.30
2021,08,10,08,25,14.40
2021,08,10,08,26,14.40
2021,08,10,08,27,14.40
2021,08,10,08,28,14.40
2021,08,10,08,29,14.40
2021,08,10,08,30,14.30
2021,08,10,08,31,14.30
2021,08,10,08,32,14.30
2021,08,10,08,33,14.30
2021,08,10,08,34,14.20
2021,08,10,08,35,14.20
2021,08,10,08,36,14.20
2021,08,10,08,37,14.10
2021,08,10,08,38,14.10
2021,08,10,08,39,14.10
2021,08,10,08,40,14.10
2021,08,10,08,41,14.10
2021,08,10,08,42,14.10
2021,08,10,08,43,14.20
2021,08,10,08,44,14.20
2021,08,10,08,45,14.20
2021,08,10,08,46,14.20
2021,08,10,08,47,14.30
2021,08,10,08,48,14.30
2021,08,10,08,49,14.30
2021,08,10,08,50,14.30
2021,08,10,08,51,14.40
2021,08,10,08,52,14.40
2021,08,10,08,53,14.40
2021,08,10,08,54,14.30
2021,08,10,08,55,14.30
2021,08,10,08,56,14.30
2021,08,10,08,57,14.30
2021,08,10,08,58,14.40
2021,08,10,08,59,14.40
2021,08,10,09,00,14.40
2021,08,10,09,01,14.40
2021,08,10,09,02,14.40
2021,08,10,09,03,14.50
2021,08,10,09,04,14.50
2021,08,10,09,05,14.60
2021,08,10,09,06,14.60
2021,08,10,09,07,14.50
2021,08,10,09,08,14.50
2021,08,10,09,09,14.60
2021,08,10,09,10,14.60
2021,08,10,09,11,14.70
2021,08,10,09,12,14.70
2021,08,10,09,13,14.80
2021,08,10,09,14,14.90
2021,08,10,09,15,14.90
2021,08,10,09,16,15.00
2021,08,10,09,17,15.10
2021,08,10,09,18,15.10
2021,08,10,09,19,15.20
2021,08,10,09,20,15.30
2021,08,10,09,21,15.30
2021,08,10,09,22,15.30
2021,08,10,09,23,15.40
2021,08,10,09,24,15.50
2021,08,10,09,25,15.60
2021,08,10,09,26,15.70
2021,08,10,09,27,15.80
2021,08,10,09,28,15.90
2021,08,10,09,29,15.90
2021,08,10,09,30,15.90
2021,08,10,09,31,15.90
2021,08,10,09,32,15.80
2021,08,10,09,33,15.80
2021,08,10,09,34,15.80
2021,08,10,09,35,15.80
2021,08,10,09,36,15.90
2021,08,10,09,37,15.90
2021,08,10,09,38,16.00
2021,08,10,09,39,16.10
2021,08,10,09,40,16.20
2021,08,10,09,41,16.20
2021,08,10,09,42,16.20
2021,08,10,09,43,16.10
2021,08,10,09,44,16.00
2021,08,10,09,45,16.00
2021,08,10,09,46,15.90
2021,08,10,09,47,16.00
2021,08,10,09,48,15.90
2021,08,10,09,49,15.90
2021,08,10,09,50,15.90
2021,08,10,09,51,15.90
2021,08,10,09,52,16.00
2021,08,10,09,53,16.10
2021,08,10,09,54,16.20
2021,08,10,09,55,16.30
2021,08,10,09,56,16.40
2021,08,10,09,57,16.50
2021,08,10,09,58,16.60
2021,08,10,09,59,16.60
2021,08,10,10,00,16.70
2021,08,10,10,01,16.70
2021,08,10,10,02,16.80
2021,08,10,10,03,16.80
2021,08,10,10,04,16.80
2021,08,10,10,05,16.80
2021,08,10,10,06,16.90
2021,08,10,10,07,17.10
2021,08,10,10,08,17.10
2021,08,10,10,09,17.20
2021,08,10,10,10,17.30
2021,08,10,10,11,17.40
2021,08,10,10,12,17.50
2021,08,10,10,13,17.70
2021,08,10,10,14,17.80
2021,08,10,10,15,18.00
2021,08,10,10,16,18.10
2021,08,10,10,17,18.20
2021,08,10,10,18,18.20
2021,08,10,10,19,18.30
2021,08,10,10,20,18.30
2021,08,10,10,21,18.50
2021,08,10,10,22,18.50
2021,08,10,10,23,18.60
2021,08,10,10,24,18.70
2021,08,10,10,25,18.70
2021,08,10,10,26,18.80
2021,08,10,10,27,18.90
2021,08,10,10,28,18.90
2021,08,10,10,29,19.00
2021,08,10,10,30,19.10
2021,08,10,10,31,19.20
2021,08,10,10,32,19.30
2021,08,10,10,33,19.30
2021,08,10,10,34,19.30
2021,08,10,10,35,19.20
2021,08,10,10,36,19.10
2021,08,10,10,37,19.20
2021,08,10,10,38,19.20
2021,08,10,10,39,19.10
2021,08,10,10,40,19.10
2021,08,10,10,41,19.20
2021,08,10,10,42,19.20
2021,08,10,10,43,19.10
2021,08,10,10,44,19.10
2021,08,10,10,45,19.10
2021,08,10,10,46,19.10
2021,08,10,10,47,19.10
2021,08,10,10,48,19.10
2021,08,10,10,49,19.00
2021,08,10,10,50,18.90
2021,08,10,10,51,18.70
2021,08,10,10,52,18.70
2021,08,10,10,53,18.70
2021,08,10,10,54,18.60
2021,08,10,10,55,18.50
2021,08,10,10,56,18.50
2021,08,10,10,57,18.40
2021,08,10,10,58,18.40
2021,08,10,10,59,18.50
2021,08,10,11,00,18.60
2021,08,10,11,01,18.60
2021,08,10,11,02,18.60
2021,08,10,11,03,18.50
2021,08,10,11,04,18.50
2021,08,10,11,05,18.40
2021,08,10,11,06,18.50
2021,08,10,11,07,18.60
2021,08,10,11,08,18.70
2021,08,10,11,09,18.80
2021,08,10,11,10,18.80
2021,08,10,11,11,18.90
2021,08,10,11,12,19.00
2021,08,10,11,13,19.10
2021,08,10,11,14,19.20
2021,08,10,11,15,19.20
2021,08,10,11,16,19.10
2021,08,10,11,17,19.00
2021,08,10,11,18,19.00
2021,08,10,11,19,19.10
2021,08,10,11,20,19.20
2021,08,10,11,21,19.30
2021,08,10,11,22,19.40
2021,08,10,11,23,19.40
2021,08,10,11,24,19.50
2021,08,10,11,25,19.50
2021,08,10,11,26,19.60
2021,08,10,11,27,19.50
2021,08,10,11,28,19.40
2021,08,10,11,29,19.30
2021,08,10,11,30,19.20
2021,08,10,11,31,19.10
2021,08,10,11,32,18.90
2021,08,10,11,33,18.80
2021,08,10,11,34,18.80
2021,08,10,11,35,18.70
2021,08,10,11,36,18.70
2021,08,10,11,37,18.60
2021,08,10,11,38,18.70
2021,08,10,11,39,18.70
2021,08,10,11,40,18.80
2021,08,10,11,41,18.80
2021,08,10,11,42,18.80
2021,08,10,11,43,18.80
2021,08,10,11,44,18.80
2021,08,10,11,45,18.80
2021,08,10,11,46,18.80
2021,08,10,11,47,18.80
2021,08,10,11,48,18.80
2021,08,10,11,49,18.90
2021,08,10,11,50,19.00
2021,08,10,11,51,19.10
2021,08,10,11,52,19.10
2021,08,10,11,53,19.10
2021,08,10,11,54,19.10
2021,08,10,11,55,19.10
2021,08,10,11,56,19.00
2021,08,10,11,57,19.00
2021,08,10,11,58,19.00
2021,08,10,11,59,19.10
2021,08,10,12,00,19.20
2021,08,10,12,01,19.20
2021,08,10,12,02,19.30
2021,08,10,12,03,19.40
2021,08,10,12,04,19.30
2021,08,10,12,05,19.30
2021,08,10,12,06,19.40
2021,08,10,12,07,19.40
2021,08,10,12,08,19.40
2021,08,10,12,09,19.40
2021,08,10,12,10,19.50
2021,08,10,12,11,19.70
2021,08,10,12,12,19.90
2021,08,10,12,13,20.10
2021,08,10,12,14,20.30
2021,08,10,12,15,20.40
2021,08,10,12,16,20.40
2021,08,10,12,17,20.30
2021,08,10,12,18,20.30
2021,08,10,12,19,20.30
2021,08,10,12,20,20.40
2021,08,10,12,21,20.50
2021,08,10,12,22,20.60
2021,08,10,12,23,20.80
2021,08,10,12,24,20.80
2021,08,10,12,25,20.80
2021,08,10,12,26,20.80
2021,08,10,12,27,20.80
2021,08,10,12,28,20.90
2021,08,10,12,29,21.00
2021,08,10,12,30,21.10
2021,08,10,12,31,21.10
2021,08,10,12,32,21.20
2021,08,10,12,33,21.20
2021,08,10,12,34,21.40
2021,08,10,12,35,21.60
2021,08,10,12,36,21.90
2021,08,10,12,37,22.30
2021,08,10,12,38,22.50
2021,08,10,12,39,22.70
2021,08,10,12,40,22.70
2021,08,10,12,41,22.70
2021,08,10,12,42,22.80
2021,08,10,12,43,22.80
2021,08,10,12,44,22.60
2021,08,10,12,45,22.60
2021,08,10,12,46,22.50
2021,08,10,12,47,22.40
2021,08,10,12,48,22.40
2021,08,10,12,49,22.40
2021,08,10,12,50,22.50
2021,08,10,12,51,22.60
2021,08,10,12,52,22.70
2021,08,10,12,53,22.70
2021,08,10,12,54,22.70
2021,08,10,12,55,22.70
2021,08,10,12,56,22.70
2021,08,10,12,57,22.60
2021,08,10,12,58,22.40
2021,08,10,12,59,22.20
2021,08,10,13,00,22.10
2021,08,10,13,01,22.10
2021,08,10,13,02,22.20
2021,08,10,13,03,22.10
2021,08,10,13,04,21.80
2021,08,10,13,05,21.60
2021,08,10,13,06,21.50
2021,08,10,13,07,21.40
2021,08,10,13,08,21.40
2021,08,10,13,09,21.50
2021,08,10,13,10,21.50
2021,08,10,13,11,21.70
2021,08,10,13,12,21.70
2021,08,10,13,13,21.70
2021,08,10,13,14,21.80
2021,08,10,13,15,21.80
2021,08,10,13,16,21.90
2021,08,10,13,17,21.90
2021,08,10,13,18,21.90
2021,08,10,13,19,22.00
2021,08,10,13,20,22.20
2021,08,10,13,21,22.30
2021,08,10,13,22,22.30
2021,08,10,13,23,22.30
2021,08,10,13,24,22.30
2021,08,10,13,25,22.40
2021,08,10,13,26,22.40
2021,08,10,13,27,22.50
2021,08,10,13,28,22.60
2021,08,10,13,29,22.50
2021,08,10,13,30,22.50
2021,08,10,13,31,22.50
2021,08,10,13,32,22.60
2021,08,10,13,33,22.70
2021,08,10,13,34,22.70
2021,08,10,13,35,22.60
2021,08,10,13,36,22.60
2021,08,10,13,37,22.70
2021,08,10,13,38,22.80
2021,08,10,13,39,22.90
2021,08,10,13,40,22.90
2021,08,10,13,41,22.90
2021,08,10,13,42,23.00
2021,08,10,13,43,23.10
2021,08,10,13,44,23.20
2021,08,10,13,45,23.40
2021,08,10,13,46,23.60
2021,08,10,13,47,23.80
2021,08,10,13,48,23.80
2021,08,10,13,49,23.80
2021,08,10,13,50,23.80
2021,08,10,13,51,23.80
2021,08,10,13,52,23.90
2021,08,10,13,53,24.00
2021,08,10,13,54,24.10
2021,08,10,13,55,24.10
2021,08,10,13,56,24.00
2021,08,10,13,57,23.90
2021,08,10,13,58,23.90
2021,08,10,13,59,23.90
2021,08,10,14,00,23.90
2021,08,10,14,01,23.80
2021,08,10,14,02,23.70
2021,08,10,14,03,23.70
2021,08,10,14,04,23.80
2021,08,10,14,05,23.80
2021,08,10,14,06,23.80
2021,08,10,14,07,23.70
2021,08,10,14,08,23.70
2021,08,10,14,09,23.50
2021,08,10,14,10,23.20
2021,08,10,14,11,23.10
2021,08,10,14,12,22.90
2021,08,10,14,13,22.70
2021,08,10,14,14,22.60
2021,08,10,14,15,22.40
2021,08,10,14,16,22.30
2021,08,10,14,17,22.30
2021,08,10,14,18,22.40
2021,08,10,14,19,22.40
2021,08,10,14,20,22.40
2021,08,10,14,21,22.50
2021,08,10,14,22,22.60
2021,08,10,14,23,22.70
2021,08,10,14,24,22.80
2021,08,10,14,25,22.90
2021,08,10,14,26,23.00
2021,08,10,14,27,23.10
2021,08,10,14,28,23.20
2021,08,10,14,29,23.30
2021,08,10,14,30,23.30
2021,08,10,14,31,23.30
2021,08,10,14,32,23.20
2021,08,10,14,33,23.20
2021,08,10,14,34,23.20
2021,08,10,14,35,23.00
2021,08,10,14,36,22.90
2021,08,10,14,37,22.70
2021,08,10,14,38,22.50
2021,08,10,14,39,22.30
2021,08,10,14,40,22.30
2021,08,10,14,41,22.40
2021,08,10,14,42,22.40
2021,08,10,14,43,22.50
2021,08,10,14,44,22.50
2021,08,10,14,45,22.40
2021,08,10,14,46,22.30
2021,08,10,14,47,22.40
2021,08,10,14,48,22.50
2021,08,10,14,49,22.70
2021,08,10,14,50,22.90
2021,08,10,14,51,23.10
2021,08,10,14,52,23.20
2021,08,10,14,53,23.30
2021,08,10,14,54,23.40
2021,08,10,14,55,23.50
2021,08,10,14,56,23.70
2021,08,10,14,57,23.70
2021,08,10,14,58,23.60
2021,08,10,14,59,23.50
2021,08,10,15,00,23.50
2021,08,10,15,01,23.60
2021,08,10,15,02,23.60
2021,08,10,15,03,23.50
2021,08,10,15,04,23.30
2021,08,10,15,05,23.10
2021,08,10,15,06,22.90
2021,08,10,15,07,22.70
2021,08,10,15,08,22.60
2021,08,10,15,09,22.50
2021,08,10,15,10,22.50
2021,08,10,15,11,22.40
2021,08,10,15,12,22.30
2021,08,10,15,13,22.20
2021,08,10,15,14,22.20
2021,08,10,15,15,22.20
2021,08,10,15,16,22.20
2021,08,10,15,17,22.20
2021,08,10,15,18,22.20
2021,08,10,15,19,22.20
2021,08,10,15,20,22.20
2021,08,10,15,21,22.30
2021,08,10,15,22,22.30
2021,08,10,15,23,22.40
2021,08,10,15,24,22.40
2021,08,10,15,25,22.40
2021,08,10,15,26,22.50
2021,08,10,15,27,22.50
2021,08,10,15,28,22.40
2021,08,10,15,29,22.40
2021,08,10,15,30,22.40
2021,08,10,15,31,22.30
2021,08,10,15,32,22.30
2021,08,10,15,33,22.40
2021,08,10,15,34,22.40
2021,08,10,15,35,22.40
2021,08,10,15,36,22.40
2021,08,10,15,37,22.30
2021,08,10,15,38,22.50
2021,08,10,15,39,22.50
2021,08,10,15,40,22.60
2021,08,10,15,41,22.70
2021,08,10,15,42,22.80
2021,08,10,15,43,22.80
2021,08,10,15,44,22.80
2021,08,10,15,45,22.80
2021,08,10,15,46,22.80
2021,08,10,15,47,22.80
2021,08,10,15,48,22.80
2021,08,10,15,49,22.80
2021,08,10,15,50,22.80
2021,08,10,15,51,22.80
2021,08,10,15,52,22.70
2021,08,10,15,53,22.70
2021,08,10,15,54,22.70
2021,08,10,15,55,22.70
2021,08,10,15,56,22.70
2021,08,10,15,57,22.70
2021,08,10,15,58,22.70
2021,08,10,15,59,22.70
2021,08,10,16,00,22.70
2021,08,10,16,01,22.70
2021,08,10,16,02,22.80
2021,08,10,16,03,22.80
2021,08,10,16,04,22.80
2021,08,10,16,05,22.90
2021,08,10,16,06,22.90
2021,08,10,16,07,23.00
2021,08,10,16,08,23.00
2021,08,10,16,09,23.00
2021,08,10,16,10,23.00
2021,08,10,16,11,22.90
2021,08,10,16,12,23.00
2021,08,10,16,13,23.00
2021,08,10,16,14,23.00
2021,08,10,16,15,23.00
2021,08,10,16,16,22.90
2021,08,10,16,17,22.90
2021,08,10,16,18,23.00
2021,08,10,16,19,23.00
2021,08,10,16,20,23.00
2021,08,10,16,21,23.00
2021,08,10,16,22,23.00
2021,08,10,16,23,23.00
2021,08,10,16,24,22.90
2021,08,10,16,25,22.90
2021,08,10,16,26,23.00
2021,08,10,16,27,23.00
2021,08,10,16,28,23.00
2021,08,10,16,29,23.00
2021,08,10,16,30,23.00
2021,08,10,16,31,23.10
2021,08,10,16,32,23.20
2021,08,10,16,33,23.30
2021,08,10,16,34,23.30
2021,08,10,16,35,23.30
2021,08,10,16,36,23.40
2021,08,10,16,37,23.50
2021,08,10,16,38,23.60
2021,08,10,16,39,23.60
2021,08,10,16,40,23.70
2021,08,10,16,41,23.80
2021,08,10,16,42,23.80
2021,08,10,16,43,23.80
2021,08,10,16,44,23.80
2021,08,10,16,45,23.90
2021,08,10,16,46,24.00
2021,08,10,16,47,24.00
2021,08,10,16,48,24.10
2021,08,10,16,49,24.10
2021,08,10,16,50,24.10
2021,08,10,16,51,24.10
2021,08,10,16,52,24.10
2021,08,10,16,53,23.90
2021,08,10,16,54,23.80
2021,08,10,16,55,23.70
2021,08,10,16,56,23.70
2021,08,10,16,57,23.70
2021,08,10,16,58,23.60
2021,08,10,16,59,23.50
2021,08,10,17,00,23.30
2021,08,10,17,01,23.20
2021,08,10,17,02,23.10
2021,08,10,17,03,22.90
2021,08,10,17,04,22.80
2021,08,10,17,05,22.80
2021,08,10,17,06,22.60
2021,08,10,17,07,22.50
2021,08,10,17,08,22.40
2021,08,10,17,09,22.30
2021,08,10,17,10,22.30
2021,08,10,17,11,22.40
2021,08,10,17,12,22.40
2021,08,10,17,13,22.50
2021,08,10,17,14,22.60
2021,08,10,17,15,22.70
2021,08,10,17,16,22.70
2021,08,10,17,17,22.80
2021,08,10,17,18,22.80
2021,08,10,17,19,22.80